[[{"header":{"parameterUnit":"m.s-1","parameterCategory":1,"la1":30.2991,"la2":30.254,"lo1":-89.0895,"lo2":-89.0444,"dy":0.0017,"dx":0.0017,"nx":28,"ny":28,"refTime":"2025-04-09T09:00:00:Z","depth":0,"parameterNumber":2,"parameterNumberName":"U-component_of_WINDS"},"data":[0,0,0,0,0,0,0,0,0,0,0,0,0,0,0,0,0,0,0,0,0,0,0,0,0,0,0,0,0,0,0,0,0,0,0,0,0,0,0,0,0,0,0,0,0,0,0,0,0,0,0,0,0,0,0,0,0,0,6.033,6.0332,0,6.0492,6.0494,6.0495,6.0393,6.0388,6.0383,6.0379,6.0549,6.0558,6.0567,0,0,0,0,0,0,0,0,0,0,0,0,0,5.9936,5.9944,6.033,6.0332,6.0334,6.0492,6.0494,6.0496,6.0394,6.0388,6.0382,6.0377,6.0546,6.0557,6.0567,0,0,0,0,0,0,0,0,0,0,0,0,0,6.0104,5.9946,6.0329,6.0302,6.0301,6.0491,6.0494,6.0497,6.0395,6.0388,6.0381,6.0374,6.0542,6.0555,6.0569,6.0797,0,0,6.061,6.0616,0,0,0,0,0,0,0,0,6.0094,6.0118,6.0304,6.0304,6.0303,6.0415,6.0417,6.0597,6.0397,6.0359,6.0379,6.037,6.051,6.0526,6.0572,6.0805,6.0812,6.0611,6.062,6.0625,6.0629,0,0,0,0,0,0,0,6.0083,6.0111,6.0394,6.0307,6.0306,6.0283,6.0298,6.0451,6.0474,6.0362,6.0355,6.0375,6.0509,6.056,6.0576,6.0814,6.0611,6.0623,6.0631,6.0637,6.1243,6.1251,0,0,0,0,0,0,6.0073,6.0102,6.0389,6.0399,6.0179,6.0296,6.0313,6.0386,6.0471,6.0477,6.0381,6.037,6.054,6.056,6.0581,6.0855,6.0625,6.0638,6.0646,6.1235,6.1245,6.1254,0,0,0,0,0,0,6.0065,6.0099,6.0382,6.0248,6.0282,6.031,6.0393,6.0393,6.0444,6.0486,6.049,6.0429,6.0535,6.0562,6.0744,6.0859,6.0644,6.0656,6.1226,6.1238,6.1249,6.1403,0,0,0,0,0,0,6.0054,6.0097,6.0183,6.0251,6.029,6.0541,6.04,6.0402,6.0467,6.0454,6.0532,6.0538,6.0532,6.0724,6.0757,6.0874,6.0667,6.1216,6.1231,6.1246,6.1387,6.1418,6.1445,0,0,0,0,0,6.004,6.022,6.0188,6.0223,6.0398,6.0548,6.0571,6.0559,6.0477,6.0564,6.0591,6.0535,6.0841,6.0744,6.078,6.0902,6.1208,6.1227,6.1244,6.1375,6.1412,6.1444,0,0,0,0,0,0,6.0166,6.0228,6.0193,6.04,6.047,6.053,6.064,6.0599,6.0694,6.0678,6.066,6.0679,6.0869,6.0903,6.0794,6.1128,6.1012,6.1038,6.1098,6.1135,6.1163,6.1151,6.0678,0,0,0,0,0,6.0217,6.0333,6.0382,6.056,6.0596,6.0613,6.0678,6.0663,6.0734,6.0763,6.0804,6.0877,6.0989,6.1064,6.1169,6.1392,6.1408,6.1494,6.1523,6.1546,6.1569,6.1691,6.173,6.1313,6.1313,6.1312,0,0,6.0326,6.0374,6.0448,6.0587,6.0638,6.076,6.0638,6.0772,6.0862,6.0784,6.0958,6.0991,6.1071,6.1274,6.1366,6.1309,6.1688,6.1569,6.1587,6.1598,6.1714,6.1753,6.1788,6.1325,6.1323,6.1321,0,0,6.0585,6.0633,6.0787,6.0841,6.0921,6.0931,6.0968,6.1036,6.1054,6.1228,6.1172,6.128,6.1474,6.1534,6.159,6.1873,6.1826,6.1908,6.2059,6.2178,6.2211,6.224,6.2342,6.2379,6.1931,6.1932,6.1932,0,6.071,6.0889,6.0871,6.101,6.1073,6.1007,6.1164,6.1218,6.1329,6.1375,6.1309,6.1552,6.1601,6.1818,6.1888,6.1934,6.1978,6.19,6.2207,6.2236,6.2263,6.2361,6.2399,6.1941,6.194,6.1939,6.1938,0,6.104,6.1165,6.1281,6.1388,6.1464,6.1612,6.1618,6.1697,6.1676,6.1693,6.1872,6.1929,6.2046,6.2096,6.2077,6.2312,6.2274,6.2208,6.2092,6.2313,6.2404,6.2441,6.1955,6.1951,6.1949,6.1946,0,0,6.1383,6.1479,6.1522,6.1571,6.1654,6.1752,6.1897,6.201,6.2079,6.2158,6.228,6.2446,6.2386,6.245,6.2437,6.2541,6.2764,6.2463,6.2464,6.2518,6.3028,6.3077,6.3121,6.2733,6.274,6.2745,6.3021,0,6.1648,6.1899,6.1888,6.2124,6.2241,6.218,6.2306,6.2372,6.2393,6.2496,6.2518,6.2637,6.2548,6.2586,6.2687,6.2715,6.2866,6.2695,6.2848,6.2853,6.283,6.3168,6.3221,6.3479,6.3057,6.3063,6.3067,0,6.1991,6.2081,6.2328,6.2395,6.2444,6.2558,6.2661,6.276,6.2834,6.2842,6.2913,6.2884,6.3032,6.2911,6.3116,6.3,6.3062,6.3086,6.3096,6.311,6.2974,6.3193,6.3561,6.36,6.3123,6.3119,6.3115,0,6.2219,6.2401,6.2573,6.2617,6.2699,6.278,6.2819,6.2886,6.2955,6.3046,6.3091,6.3198,6.3258,6.3342,6.3343,6.3254,6.3552,6.343,6.3563,6.3564,6.3629,6.3626,6.4013,6.3668,6.3667,6.3667,6.3666,0,6.2517,6.2671,6.2676,6.2782,6.2954,6.294,6.311,6.3141,6.3201,6.3313,6.3267,6.3373,6.3367,6.3476,6.3478,6.3649,6.3675,6.3687,6.3686,6.3692,6.3691,6.3733,6.3715,6.3677,6.3675,6.3673,6.3671,0,6.28,6.281,6.2993,6.3056,6.3075,6.3199,6.3253,6.3355,6.3371,6.3513,6.3546,6.3572,6.3698,6.3706,6.3852,6.3853,6.406,6.4039,6.4035,6.4032,6.4165,6.4153,6.4594,6.4652,6.4268,6.4272,6.4275,0,6.299,6.3107,6.3182,6.3253,6.3296,6.3411,6.3481,6.3473,6.3548,6.3642,6.3733,6.3853,6.3949,6.4152,6.4185,6.4297,6.4278,6.4425,6.4295,6.4298,6.4282,6.4276,6.4288,6.4451,6.4455,6.4459,6.4462,0,6.3327,6.3326,6.3428,6.3533,6.3617,6.37,6.3776,6.3838,6.3838,6.3926,6.4052,6.4127,6.4275,6.4396,6.4505,6.4546,6.4506,6.4502,6.4539,6.4547,6.4541,6.4547,6.4106,6.4492,6.4489,6.4487,6.4485,6.4484,6.357,6.3672,6.3741,6.3856,6.3913,6.3986,6.4084,6.4113,6.4218,6.4337,6.4326,6.4467,6.4539,6.4681,6.4731,6.4842,6.4793,6.4846,6.486,6.4873,6.4888,6.4522,6.4862,6.4861,6.486,6.4859,6.4859,0,6.3906,6.3947,6.4053,6.4162,6.4254,6.4205,6.4288,6.4368,6.4493,6.4563,6.4658,6.4805,6.4922,6.4965,6.5079,6.5161,6.5145,6.5191,6.5186,6.5196,6.4925,6.4882,6.5202,6.5202,6.5202,6.5202,6.5202,6.5201,6.4091,6.4261,6.4269,6.4466,6.4507,6.4644,6.4695,6.4763,6.4819,6.4985,6.5081,6.5107,6.5167,6.5286,6.5392,6.5402,6.5447,6.5501,6.5503,6.5249,6.5215,6.5182,6.5142,6.5511,6.5511,6.5765,6.5767,6.5769]},{"header":{"parameterUnit":"m.s-1","parameterCategory":1,"la1":30.2991,"la2":30.254,"lo1":-89.0895,"lo2":-89.0444,"dy":0.0017,"dx":0.0017,"nx":28,"ny":28,"refTime":"2025-04-09T09:00:00:Z","depth":0,"parameterNumber":3,"parameterNumberName":"V-component_of_WINDS"},"data":[0,0,0,0,0,0,0,0,0,0,0,0,0,0,0,0,0,0,0,0,0,0,0,0,0,0,0,0,0,0,0,0,0,0,0,0,0,0,0,0,0,0,0,0,0,0,0,0,0,0,0,0,0,0,0,0,0,0,-1.4693,-1.4694,0,-1.4743,-1.4743,-1.4744,-1.4755,-1.4755,-1.4754,-1.4754,-1.4804,-1.4806,-1.4807,0,0,0,0,0,0,0,0,0,0,0,0,0,-1.4608,-1.461,-1.4693,-1.4694,-1.4694,-1.4743,-1.4743,-1.4744,-1.4755,-1.4755,-1.4754,-1.4754,-1.4804,-1.4806,-1.4808,0,0,0,0,0,0,0,0,0,0,0,0,0,-1.465,-1.461,-1.4693,-1.4706,-1.4707,-1.4742,-1.4743,-1.4744,-1.4755,-1.4755,-1.4754,-1.4753,-1.4803,-1.4805,-1.4808,-1.4834,0,0,-1.4815,-1.4817,0,0,0,0,0,0,0,0,-1.4648,-1.4653,-1.4703,-1.4705,-1.4707,-1.4742,-1.4732,-1.4774,-1.4755,-1.4737,-1.4754,-1.4753,-1.4784,-1.4788,-1.4798,-1.4836,-1.4838,-1.4816,-1.4817,-1.4818,-1.4819,0,0,0,0,0,0,0,-1.4645,-1.4651,-1.4713,-1.4704,-1.4706,-1.4709,-1.4714,-1.474,-1.4763,-1.4738,-1.4739,-1.4745,-1.4785,-1.4796,-1.48,-1.4839,-1.4816,-1.4818,-1.4819,-1.482,-1.4902,-1.4902,0,0,0,0,0,0,-1.464,-1.4649,-1.4711,-1.4714,-1.4675,-1.4711,-1.4717,-1.4731,-1.4762,-1.4767,-1.4745,-1.4745,-1.4792,-1.4797,-1.4801,-1.4834,-1.4818,-1.4821,-1.4822,-1.4901,-1.4902,-1.4902,0,0,0,0,0,0,-1.4638,-1.4645,-1.4709,-1.4682,-1.469,-1.4713,-1.4729,-1.4732,-1.4744,-1.4768,-1.4772,-1.4753,-1.4792,-1.4798,-1.4826,-1.4836,-1.4822,-1.4824,-1.49,-1.4901,-1.4902,-1.49,0,0,0,0,0,0,-1.4635,-1.4644,-1.4654,-1.4682,-1.4691,-1.4733,-1.473,-1.4734,-1.4748,-1.4748,-1.4776,-1.478,-1.4792,-1.4822,-1.4828,-1.4839,-1.4826,-1.4899,-1.4901,-1.4902,-1.4899,-1.49,-1.4902,0,0,0,0,0,-1.4632,-1.4651,-1.4655,-1.4662,-1.4704,-1.4733,-1.4739,-1.4752,-1.4749,-1.4759,-1.4775,-1.4779,-1.4834,-1.4825,-1.4832,-1.4844,-1.4899,-1.49,-1.4902,-1.4898,-1.49,-1.4902,0,0,0,0,0,0,-1.4624,-1.4655,-1.4659,-1.4688,-1.4708,-1.4735,-1.4748,-1.4754,-1.4775,-1.4774,-1.479,-1.4796,-1.4823,-1.4837,-1.4826,-1.4871,-1.4866,-1.4869,-1.4861,-1.4863,-1.4865,-1.4861,-1.4828,0,0,0,0,0,-1.4625,-1.4646,-1.4672,-1.4695,-1.4705,-1.4725,-1.4738,-1.4747,-1.4768,-1.4776,-1.4794,-1.4815,-1.4837,-1.4851,-1.4873,-1.4901,-1.4907,-1.4913,-1.4914,-1.4915,-1.4918,-1.4934,-1.4937,-1.4907,-1.4907,-1.4907,0,0,-1.4629,-1.4648,-1.466,-1.4694,-1.471,-1.4732,-1.4732,-1.4754,-1.477,-1.478,-1.4807,-1.4821,-1.4845,-1.4874,-1.4887,-1.4886,-1.4927,-1.4917,-1.4918,-1.492,-1.4936,-1.4939,-1.4941,-1.4908,-1.4908,-1.4908,0,0,-1.4645,-1.4662,-1.4683,-1.47,-1.4725,-1.4739,-1.4744,-1.477,-1.478,-1.4808,-1.4816,-1.4836,-1.4873,-1.489,-1.4904,-1.4928,-1.4933,-1.4935,-1.4942,-1.4958,-1.496,-1.4963,-1.4971,-1.4974,-1.4937,-1.4937,-1.4937,0,-1.4646,-1.4678,-1.4693,-1.4715,-1.473,-1.4741,-1.4762,-1.4778,-1.4809,-1.4819,-1.4817,-1.4865,-1.4882,-1.4914,-1.4921,-1.4931,-1.4938,-1.4931,-1.4959,-1.4961,-1.4963,-1.4972,-1.4975,-1.4937,-1.4937,-1.4937,-1.4937,0,-1.4678,-1.47,-1.4714,-1.4744,-1.476,-1.4782,-1.4801,-1.4816,-1.4824,-1.4837,-1.4866,-1.4887,-1.4913,-1.4922,-1.493,-1.4957,-1.4955,-1.4956,-1.4951,-1.4966,-1.4974,-1.4978,-1.4937,-1.4937,-1.4937,-1.4937,0,0,-1.4689,-1.4728,-1.4733,-1.4747,-1.4776,-1.4794,-1.4816,-1.4843,-1.4855,-1.4877,-1.4896,-1.4928,-1.493,-1.4945,-1.4955,-1.4969,-1.4988,-1.4969,-1.4969,-1.4971,-1.5019,-1.5017,-1.5021,-1.4991,-1.4992,-1.4993,-1.5017,0,-1.4709,-1.4749,-1.4764,-1.4797,-1.4818,-1.483,-1.4849,-1.487,-1.4884,-1.4904,-1.4919,-1.4942,-1.4942,-1.4951,-1.4966,-1.4982,-1.4997,-1.4981,-1.501,-1.501,-1.5002,-1.5025,-1.5024,-1.5045,-1.502,-1.502,-1.5021,0,-1.4737,-1.4759,-1.4795,-1.4822,-1.4831,-1.4849,-1.4875,-1.4894,-1.4917,-1.4926,-1.4944,-1.4954,-1.4978,-1.4973,-1.5007,-1.4996,-1.5009,-1.5019,-1.502,-1.5022,-1.5016,-1.5028,-1.5052,-1.5055,-1.5026,-1.5026,-1.5025,0,-1.4741,-1.478,-1.4807,-1.4818,-1.4851,-1.4863,-1.4877,-1.4901,-1.4916,-1.4938,-1.4948,-1.4973,-1.4987,-1.5006,-1.5023,-1.5017,-1.5055,-1.5052,-1.5064,-1.5063,-1.507,-1.507,-1.5097,-1.508,-1.508,-1.508,-1.5079,0,-1.4762,-1.4783,-1.4809,-1.4825,-1.485,-1.4867,-1.4891,-1.4906,-1.4926,-1.4946,-1.4957,-1.4975,-1.4996,-1.5017,-1.503,-1.5056,-1.5063,-1.5071,-1.5074,-1.5069,-1.5068,-1.5077,-1.5076,-1.508,-1.508,-1.508,-1.508,0,-1.477,-1.4789,-1.4818,-1.4847,-1.4855,-1.4872,-1.4897,-1.4913,-1.4928,-1.4952,-1.4959,-1.4983,-1.5008,-1.5026,-1.5059,-1.5068,-1.5096,-1.5099,-1.5088,-1.5089,-1.5101,-1.5099,-1.5134,-1.5139,-1.5119,-1.5119,-1.5119,0,-1.4781,-1.4798,-1.4829,-1.4843,-1.4857,-1.488,-1.4895,-1.4914,-1.4929,-1.4958,-1.4971,-1.4998,-1.5019,-1.506,-1.508,-1.5105,-1.5109,-1.5119,-1.5112,-1.5108,-1.5109,-1.5107,-1.5109,-1.512,-1.512,-1.512,-1.512,0,-1.48,-1.4808,-1.483,-1.4856,-1.4874,-1.4895,-1.4916,-1.4927,-1.4949,-1.4967,-1.4993,-1.501,-1.5044,-1.507,-1.5098,-1.5113,-1.512,-1.5122,-1.5126,-1.5122,-1.5114,-1.5118,-1.509,-1.5121,-1.5121,-1.5121,-1.5121,-1.5121,-1.481,-1.4825,-1.485,-1.4874,-1.4892,-1.4912,-1.4929,-1.4946,-1.4968,-1.4997,-1.5007,-1.5034,-1.5059,-1.5096,-1.5112,-1.5134,-1.5133,-1.5139,-1.5141,-1.5142,-1.5142,-1.5111,-1.5139,-1.5139,-1.5139,-1.5139,-1.5139,0,-1.4828,-1.4845,-1.4867,-1.4897,-1.4916,-1.4922,-1.4946,-1.4962,-1.4986,-1.5008,-1.503,-1.506,-1.5086,-1.5108,-1.5135,-1.5148,-1.5153,-1.5155,-1.5154,-1.5157,-1.514,-1.5134,-1.5151,-1.5151,-1.5151,-1.5151,-1.5151,-1.5151,-1.484,-1.4867,-1.4878,-1.4914,-1.4931,-1.4958,-1.4971,-1.499,-1.5007,-1.5041,-1.5063,-1.5077,-1.51,-1.5129,-1.5153,-1.5159,-1.5168,-1.5169,-1.5176,-1.516,-1.5158,-1.5157,-1.5151,-1.5171,-1.5171,-1.5191,-1.5191,-1.5191]}]]